Time,TemperatureF,DewpointF,PressureIn,WindDirection,WindDirectionDegrees,WindSpeedMPH,WindSpeedGustMPH,Humidity,HourlyPrecipIn,Conditions,Clouds,dailyrainin,SoftwareType,DateUTC
2013-06-19 00:01:00,56.3,43.9,30.07,ENE,78,2.0,2.0,63,0.00,,,0.00,Wunderground v.1.15,2013-06-19 04:01:00,
2013-06-19 00:06:00,56.2,43.8,30.07,ENE,78,2.0,2.0,63,0.00,,,0.00,Wunderground v.1.15,2013-06-19 04:06:00,
2013-06-19 00:11:00,56.2,43.8,30.07,ENE,78,1.0,3.0,63,0.00,,,0.00,Wunderground v.1.15,2013-06-19 04:11:00,
2013-06-19 00:16:00,56.0,43.6,30.07,ENE,61,1.0,3.0,63,0.00,,,0.00,Wunderground v.1.15,2013-06-19 04:16:00,
2013-06-19 00:26:00,55.9,43.1,30.07,East,100,1.0,1.0,62,0.00,,,0.00,Wunderground v.1.15,2013-06-19 04:26:00,
2013-06-19 00:36:00,55.9,43.9,30.08,East,100,3.0,3.0,64,0.00,,,0.00,Wunderground v.1.15,2013-06-19 04:36:00,
2013-06-19 00:41:00,55.9,43.9,30.07,East,100,2.0,2.0,64,0.00,,,0.00,Wunderground v.1.15,2013-06-19 04:41:00,
2013-06-19 00:51:00,55.8,43.4,30.07,East,100,1.0,1.0,63,0.00,,,0.00,Wunderground v.1.15,2013-06-19 04:51:00,
2013-06-19 01:01:00,55.5,44.3,30.08,East,100,0.0,0.0,66,0.00,,,0.00,Wunderground v.1.15,2013-06-19 05:01:00,
2013-06-19 01:11:00,54.8,44.4,30.07,East,100,0.0,0.0,68,0.00,,,0.00,Wunderground v.1.15,2013-06-19 05:11:00,
2013-06-19 01:21:00,54.1,44.2,30.07,East,100,0.0,0.0,69,0.00,,,0.00,Wunderground v.1.15,2013-06-19 05:21:00,
2013-06-19 01:26:00,53.9,44.3,30.07,East,100,0.0,0.0,70,0.00,,,0.00,Wunderground v.1.15,2013-06-19 05:26:00,
2013-06-19 01:36:00,53.4,44.2,30.07,East,100,0.0,0.0,71,0.00,,,0.00,Wunderground v.1.15,2013-06-19 05:36:00,
2013-06-19 01:46:00,53.0,44.2,30.07,East,100,0.0,0.0,72,0.00,,,0.00,Wunderground v.1.15,2013-06-19 05:46:00,
2013-06-19 01:56:00,52.8,44.0,30.07,East,100,0.0,0.0,72,0.00,,,0.00,Wunderground v.1.15,2013-06-19 05:56:00,
2013-06-19 02:06:00,52.5,44.4,30.07,East,100,1.0,1.0,74,0.00,,,0.00,Wunderground v.1.15,2013-06-19 06:06:00,
2013-06-19 02:16:00,52.3,44.6,30.07,East,100,0.0,1.0,75,0.00,,,0.00,Wunderground v.1.15,2013-06-19 06:16:00,
2013-06-19 02:26:00,52.2,44.5,30.07,East,100,0.0,0.0,75,0.00,,,0.00,Wunderground v.1.15,2013-06-19 06:26:00,
2013-06-19 02:36:00,52.0,44.0,30.07,East,100,0.0,0.0,74,0.00,,,0.00,Wunderground v.1.15,2013-06-19 06:36:00,
2013-06-19 02:46:00,51.7,44.4,30.07,East,100,0.0,0.0,76,0.00,,,0.00,Wunderground v.1.15,2013-06-19 06:46:00,
2013-06-19 02:51:00,51.6,44.6,30.08,East,100,0.0,0.0,77,0.00,,,0.00,Wunderground v.1.15,2013-06-19 06:51:00,
2013-06-19 03:01:00,51.1,44.5,30.08,East,100,0.0,0.0,78,0.00,,,0.00,Wunderground v.1.15,2013-06-19 07:01:00,
2013-06-19 03:11:00,50.7,44.4,30.08,East,100,0.0,0.0,79,0.00,,,0.00,Wunderground v.1.15,2013-06-19 07:11:00,
2013-06-19 03:16:00,50.3,44.0,30.08,East,100,0.0,2.0,79,0.00,,,0.00,Wunderground v.1.15,2013-06-19 07:16:00,
2013-06-19 03:26:00,49.5,43.9,30.09,East,100,1.0,1.0,81,0.00,,,0.00,Wunderground v.1.15,2013-06-19 07:26:00,
2013-06-19 03:31:00,49.6,44.6,30.08,East,100,2.0,2.0,83,0.00,,,0.00,Wunderground v.1.15,2013-06-19 07:31:00,
2013-06-19 03:41:00,49.9,44.9,30.09,East,100,1.0,1.0,83,0.00,,,0.00,Wunderground v.1.15,2013-06-19 07:41:00,
2013-06-19 03:46:00,49.9,45.3,30.09,East,100,2.0,3.0,84,0.00,,,0.00,Wunderground v.1.15,2013-06-19 07:46:00,
2013-06-19 03:56:00,50.0,45.4,30.10,East,100,3.0,3.0,84,0.00,,,0.00,Wunderground v.1.15,2013-06-19 07:56:00,
2013-06-19 04:01:00,50.0,45.4,30.10,East,100,3.0,3.0,84,0.00,,,0.00,Wunderground v.1.15,2013-06-19 08:01:00,
2013-06-19 04:06:00,49.9,45.3,30.10,East,100,2.0,3.0,84,0.00,,,0.00,Wunderground v.1.15,2013-06-19 08:06:00,
2013-06-19 04:16:00,49.7,45.4,30.10,East,100,3.0,3.0,85,0.00,,,0.00,Wunderground v.1.15,2013-06-19 08:16:00,
2013-06-19 04:21:00,49.5,45.2,30.10,East,100,2.0,3.0,85,0.00,,,0.00,Wunderground v.1.15,2013-06-19 08:21:00,
2013-06-19 04:31:00,49.3,45.3,30.10,East,100,1.0,1.0,86,0.00,,,0.00,Wunderground v.1.15,2013-06-19 08:31:00,
2013-06-19 04:41:00,48.9,44.9,30.11,East,100,2.0,2.0,86,0.00,,,0.00,Wunderground v.1.15,2013-06-19 08:41:00,
2013-06-19 04:46:00,48.7,44.7,30.11,East,100,2.0,2.0,86,0.00,,,0.00,Wunderground v.1.15,2013-06-19 08:46:00,
2013-06-19 04:56:00,48.7,44.7,30.11,East,100,1.0,1.0,86,0.00,,,0.00,Wunderground v.1.15,2013-06-19 08:56:00,
2013-06-19 05:06:00,48.7,44.7,30.11,East,100,0.0,1.0,86,0.00,,,0.00,Wunderground v.1.15,2013-06-19 09:06:00,
2013-06-19 05:16:00,48.5,44.8,30.11,East,100,0.0,0.0,87,0.00,,,0.00,Wunderground v.1.15,2013-06-19 09:16:00,
2013-06-19 05:21:00,48.4,44.7,30.11,East,100,0.0,0.0,87,0.00,,,0.00,Wunderground v.1.15,2013-06-19 09:21:00,
2013-06-19 05:31:00,48.2,44.5,30.11,East,100,0.0,0.0,87,0.00,,,0.00,Wunderground v.1.15,2013-06-19 09:31:00,
2013-06-19 05:41:00,48.1,44.4,30.12,East,100,0.0,0.0,87,0.00,,,0.00,Wunderground v.1.15,2013-06-19 09:41:00,
2013-06-19 05:46:00,48.1,44.4,30.12,East,100,1.0,2.0,87,0.00,,,0.00,Wunderground v.1.15,2013-06-19 09:46:00,
2013-06-19 05:51:00,48.1,44.4,30.13,East,100,2.0,2.0,87,0.00,,,0.00,Wunderground v.1.15,2013-06-19 09:51:00,
2013-06-19 06:01:00,48.1,44.4,30.13,East,100,2.0,2.0,87,0.00,,,0.00,Wunderground v.1.15,2013-06-19 10:01:00,
2013-06-19 06:11:00,47.9,44.2,30.13,East,100,1.0,1.0,87,0.00,,,0.00,Wunderground v.1.15,2013-06-19 10:11:00,
2013-06-19 06:21:00,47.9,44.5,30.14,East,100,2.0,2.0,88,0.00,,,0.00,Wunderground v.1.15,2013-06-19 10:21:00,
2013-06-19 06:26:00,47.8,44.4,30.14,East,100,2.0,2.0,88,0.00,,,0.00,Wunderground v.1.15,2013-06-19 10:26:00,
2013-06-19 06:31:00,47.7,44.6,30.15,West,275,2.0,2.0,89,0.00,,,0.00,Wunderground v.1.15,2013-06-19 10:31:00,
2013-06-19 06:41:00,47.6,44.5,30.15,West,275,1.0,2.0,89,0.00,,,0.00,Wunderground v.1.15,2013-06-19 10:41:00,
2013-06-19 06:56:00,47.5,44.4,30.15,West,275,1.0,2.0,89,0.00,,,0.00,Wunderground v.1.15,2013-06-19 10:56:00,
2013-06-19 07:06:00,47.7,44.6,30.15,West,275,1.0,1.0,89,0.00,,,0.00,Wunderground v.1.15,2013-06-19 11:06:00,
2013-06-19 07:11:00,47.9,45.1,30.15,West,275,1.0,1.0,90,0.00,,,0.00,Wunderground v.1.15,2013-06-19 11:11:00,
2013-06-19 07:21:00,48.5,45.4,30.15,West,275,0.0,1.0,89,0.00,,,0.00,Wunderground v.1.15,2013-06-19 11:21:00,
2013-06-19 07:31:00,49.3,46.2,30.15,West,275,1.0,1.0,89,0.00,,,0.00,Wunderground v.1.15,2013-06-19 11:31:00,
2013-06-19 07:41:00,50.1,46.7,30.15,NW,322,2.0,3.0,88,0.00,,,0.00,Wunderground v.1.15,2013-06-19 11:41:00,
2013-06-19 07:51:00,51.1,47.1,30.15,North,5,2.0,2.0,86,0.00,,,0.00,Wunderground v.1.15,2013-06-19 11:51:00,
2013-06-19 08:01:00,52.1,47.4,30.16,North,5,2.0,2.0,84,0.00,,,0.00,Wunderground v.1.15,2013-06-19 12:01:00,
2013-06-19 08:11:00,53.2,47.8,30.16,North,5,2.0,2.0,82,0.00,,,0.00,Wunderground v.1.15,2013-06-19 12:11:00,
2013-06-19 08:20:00,54.1,48.1,30.17,North,5,2.0,2.0,80,0.00,,,0.00,Wunderground v.1.15,2013-06-19 12:20:00,
2013-06-19 08:26:00,54.7,48.0,30.17,North,5,2.0,2.0,78,0.00,,,0.00,Wunderground v.1.15,2013-06-19 12:26:00,
2013-06-19 08:31:00,55.6,47.8,30.16,ENE,64,2.0,3.0,75,0.00,,,0.00,Wunderground v.1.15,2013-06-19 12:31:00,
2013-06-19 08:41:00,56.9,46.4,30.16,East,89,4.0,4.0,68,0.00,,,0.00,Wunderground v.1.15,2013-06-19 12:41:00,
2013-06-19 08:51:00,57.9,45.8,30.16,NE,47,6.0,6.0,64,0.00,,,0.00,Wunderground v.1.15,2013-06-19 12:51:00,
2013-06-19 08:56:00,58.4,45.0,30.16,East,90,6.0,6.0,61,0.00,,,0.00,Wunderground v.1.15,2013-06-19 12:56:00,
2013-06-19 09:01:00,59.0,45.1,30.16,East,79,6.0,6.0,60,0.00,,,0.00,Wunderground v.1.15,2013-06-19 13:01:00,
2013-06-19 09:11:00,59.5,45.6,30.16,ESE,106,6.0,7.0,60,0.00,,,0.00,Wunderground v.1.15,2013-06-19 13:11:00,
2013-06-19 09:21:00,59.9,46.4,30.16,East,87,7.0,7.0,61,0.00,,,0.00,Wunderground v.1.15,2013-06-19 13:21:00,
2013-06-19 09:26:00,60.2,46.3,30.15,ESE,119,8.0,8.0,60,0.00,,,0.00,Wunderground v.1.15,2013-06-19 13:26:00,
2013-06-19 09:35:00,60.8,45.9,30.16,East,96,7.0,9.0,58,0.00,,,0.00,Wunderground v.1.15,2013-06-19 13:35:00,
2013-06-19 09:41:00,61.3,45.5,30.15,East,86,7.0,7.0,56,0.00,,,0.00,Wunderground v.1.15,2013-06-19 13:41:00,
2013-06-19 09:46:00,61.5,45.7,30.15,East,82,8.0,8.0,56,0.00,,,0.00,Wunderground v.1.15,2013-06-19 13:46:00,
2013-06-19 09:51:00,61.9,45.5,30.15,East,88,7.0,7.0,55,0.00,,,0.00,Wunderground v.1.15,2013-06-19 13:51:00,
2013-06-19 10:01:00,62.4,45.0,30.15,SE,142,7.0,7.0,53,0.00,,,0.00,Wunderground v.1.15,2013-06-19 14:01:00,
2013-06-19 10:06:00,62.5,45.1,30.15,East,91,7.0,7.0,53,0.00,,,0.00,Wunderground v.1.15,2013-06-19 14:06:00,
2013-06-19 10:16:00,63.2,44.8,30.15,East,92,6.0,7.0,51,0.00,,,0.00,Wunderground v.1.15,2013-06-19 14:16:00,
2013-06-19 10:21:00,63.1,44.2,30.16,ENE,74,6.0,9.0,50,0.00,,,0.00,Wunderground v.1.15,2013-06-19 14:21:00,
2013-06-19 10:31:00,63.4,44.9,30.15,SE,136,6.0,9.0,51,0.00,,,0.00,Wunderground v.1.15,2013-06-19 14:31:00,
2013-06-19 10:36:00,63.8,45.8,30.15,SE,141,6.0,10.0,52,0.00,,,0.00,Wunderground v.1.15,2013-06-19 14:36:00,
2013-06-19 10:41:00,64.1,45.1,30.16,ESE,116,6.0,6.0,50,0.00,,,0.00,Wunderground v.1.15,2013-06-19 14:41:00,
2013-06-19 10:51:00,64.8,45.2,30.15,ESE,120,5.0,10.0,49,0.00,,,0.00,Wunderground v.1.15,2013-06-19 14:51:00,
2013-06-19 11:01:00,65.3,44.5,30.15,NE,50,6.0,6.0,47,0.00,,,0.00,Wunderground v.1.15,2013-06-19 15:01:00,
2013-06-19 11:06:00,65.5,43.6,30.15,ESE,104,6.0,10.0,45,0.00,,,0.00,Wunderground v.1.15,2013-06-19 15:06:00,
2013-06-19 11:16:00,65.4,42.9,30.16,SE,128,6.0,8.0,44,0.00,,,0.00,Wunderground v.1.15,2013-06-19 15:16:00,
2013-06-19 11:26:00,65.8,44.4,30.16,East,92,5.0,6.0,46,0.00,,,0.00,Wunderground v.1.15,2013-06-19 15:26:00,
2013-06-19 11:36:00,65.7,44.3,30.16,SE,141,4.0,6.0,46,0.00,,,0.00,Wunderground v.1.15,2013-06-19 15:36:00,
2013-06-19 11:46:00,66.4,42.6,30.15,NNE,13,5.0,6.0,42,0.00,,,0.00,Wunderground v.1.15,2013-06-19 15:46:00,
2013-06-19 11:56:00,66.8,43.6,30.15,East,89,5.0,5.0,43,0.00,,,0.00,Wunderground v.1.15,2013-06-19 15:56:00,
2013-06-19 12:01:00,66.7,43.5,30.15,SE,142,6.0,7.0,43,0.00,,,0.00,Wunderground v.1.15,2013-06-19 16:01:00,
2013-06-19 12:06:00,66.6,43.4,30.15,ENE,78,6.0,7.0,43,0.00,,,0.00,Wunderground v.1.15,2013-06-19 16:06:00,
2013-06-19 12:16:00,66.7,44.7,30.15,ESE,113,4.0,5.0,45,0.00,,,0.00,Wunderground v.1.15,2013-06-19 16:16:00,
2013-06-19 12:26:00,67.4,42.9,30.15,East,97,6.0,7.0,41,0.00,,,0.00,Wunderground v.1.15,2013-06-19 16:26:00,
2013-06-19 12:35:00,67.6,43.1,30.15,NE,45,6.0,11.0,41,0.00,,,0.00,Wunderground v.1.15,2013-06-19 16:35:00,
2013-06-19 12:41:00,67.5,43.6,30.15,East,97,5.0,5.0,42,0.00,,,0.00,Wunderground v.1.15,2013-06-19 16:41:00,
2013-06-19 12:46:00,67.6,43.1,30.15,East,97,5.0,5.0,41,0.00,,,0.00,Wunderground v.1.15,2013-06-19 16:46:00,
2013-06-19 12:51:00,67.3,44.0,30.14,East,92,6.0,6.0,43,0.00,,,0.00,Wunderground v.1.15,2013-06-19 16:51:00,
2013-06-19 13:01:00,67.7,44.4,30.13,East,91,5.0,5.0,43,0.00,,,0.00,Wunderground v.1.15,2013-06-19 17:01:00,
2013-06-19 13:11:00,68.1,44.7,30.13,ENE,70,5.0,5.0,43,0.00,,,0.00,Wunderground v.1.15,2013-06-19 17:11:00,
2013-06-19 13:16:00,68.6,44.6,30.14,ENE,65,5.0,5.0,42,0.00,,,0.00,Wunderground v.1.15,2013-06-19 17:16:00,
2013-06-19 13:26:00,68.5,42.6,30.13,ESE,105,6.0,12.0,39,0.00,,,0.00,Wunderground v.1.15,2013-06-19 17:26:00,
2013-06-19 13:31:00,68.3,44.3,30.13,ESE,118,7.0,7.0,42,0.00,,,0.00,Wunderground v.1.15,2013-06-19 17:31:00,
2013-06-19 13:41:00,68.6,43.9,30.13,ESE,110,4.0,7.0,41,0.00,,,0.00,Wunderground v.1.15,2013-06-19 17:41:00,
2013-06-19 13:46:00,68.7,44.0,30.13,NE,56,5.0,6.0,41,0.00,,,0.00,Wunderground v.1.15,2013-06-19 17:46:00,
2013-06-19 13:56:00,69.2,41.8,30.12,East,92,6.0,6.0,37,0.00,,,0.00,Wunderground v.1.15,2013-06-19 17:56:00,
2013-06-19 14:06:00,70.0,44.6,30.12,ESE,108,3.0,4.0,40,0.00,,,0.00,Wunderground v.1.15,2013-06-19 18:06:00,
2013-06-19 14:16:00,70.5,44.3,30.12,North,360,6.0,6.0,39,0.00,,,0.00,Wunderground v.1.15,2013-06-19 18:16:00,
2013-06-19 14:26:00,70.8,45.3,30.12,East,92,6.0,8.0,40,0.00,,,0.00,Wunderground v.1.15,2013-06-19 18:26:00,
2013-06-19 14:31:00,70.7,45.2,30.12,East,98,6.0,6.0,40,0.00,,,0.00,Wunderground v.1.15,2013-06-19 18:31:00,
2013-06-19 14:41:00,70.5,45.0,30.11,ESE,104,4.0,8.0,40,0.00,,,0.00,Wunderground v.1.15,2013-06-19 18:41:00,
2013-06-19 14:46:00,70.6,44.4,30.12,ESE,114,5.0,8.0,39,0.00,,,0.00,Wunderground v.1.15,2013-06-19 18:46:00,
2013-06-19 14:56:00,71.0,43.4,30.11,ESE,108,4.0,5.0,37,0.00,,,0.00,Wunderground v.1.15,2013-06-19 18:56:00,
2013-06-19 15:01:00,70.9,44.7,30.11,ESE,120,5.0,5.0,39,0.00,,,0.00,Wunderground v.1.15,2013-06-19 19:01:00,
2013-06-19 15:11:00,71.0,44.8,30.11,SE,129,3.0,6.0,39,0.00,,,0.00,Wunderground v.1.15,2013-06-19 19:11:00,
2013-06-19 15:16:00,71.0,46.1,30.11,SE,130,5.0,6.0,41,0.00,,,0.00,Wunderground v.1.15,2013-06-19 19:16:00,
2013-06-19 15:26:00,71.1,45.5,30.10,ESE,102,5.0,5.0,40,0.00,,,0.00,Wunderground v.1.15,2013-06-19 19:26:00,
2013-06-19 15:36:00,71.0,45.5,30.10,East,84,4.0,5.0,40,0.00,,,0.00,Wunderground v.1.15,2013-06-19 19:36:00,
2013-06-19 15:41:00,71.5,45.9,30.10,SSE,147,5.0,5.0,40,0.00,,,0.00,Wunderground v.1.15,2013-06-19 19:41:00,
2013-06-19 15:46:00,71.6,44.6,30.10,SE,133,4.0,5.0,38,0.00,,,0.00,Wunderground v.1.15,2013-06-19 19:46:00,
2013-06-19 15:56:00,72.1,45.8,30.10,SE,144,6.0,6.0,39,0.00,,,0.00,Wunderground v.1.15,2013-06-19 19:56:00,
2013-06-19 16:01:00,72.0,45.0,30.10,ESE,109,7.0,7.0,38,0.00,,,0.00,Wunderground v.1.15,2013-06-19 20:01:00,
2013-06-19 16:06:00,71.7,44.7,30.10,ESE,107,4.0,7.0,38,0.00,,,0.00,Wunderground v.1.15,2013-06-19 20:06:00,
2013-06-19 16:11:00,71.7,45.4,30.10,SE,125,3.0,3.0,39,0.00,,,0.00,Wunderground v.1.15,2013-06-19 20:11:00,
2013-06-19 16:21:00,72.1,45.1,30.09,ESE,123,4.0,5.0,38,0.00,,,0.00,Wunderground v.1.15,2013-06-19 20:21:00,
2013-06-19 16:26:00,72.1,45.1,30.09,SE,143,5.0,5.0,38,0.00,,,0.00,Wunderground v.1.15,2013-06-19 20:26:00,
2013-06-19 16:36:00,72.3,46.6,30.08,SE,130,3.0,5.0,40,0.00,,,0.00,Wunderground v.1.15,2013-06-19 20:36:00,
2013-06-19 16:41:00,72.5,46.1,30.08,ESE,118,3.0,5.0,39,0.00,,,0.00,Wunderground v.1.15,2013-06-19 20:41:00,
2013-06-19 16:51:00,72.5,46.1,30.08,SSE,158,5.0,7.0,39,0.00,,,0.00,Wunderground v.1.15,2013-06-19 20:51:00,
2013-06-19 16:56:00,72.8,45.7,30.09,SE,133,3.0,6.0,38,0.00,,,0.00,Wunderground v.1.15,2013-06-19 20:56:00,
2013-06-19 17:05:00,72.8,46.4,30.09,NW,318,2.0,2.0,39,0.00,,,0.00,Wunderground v.1.15,2013-06-19 21:05:00,
2013-06-19 17:11:00,73.2,46.1,30.08,SE,139,3.0,5.0,38,0.00,,,0.00,Wunderground v.1.15,2013-06-19 21:11:00,
2013-06-19 17:25:00,73.0,46.6,30.08,SE,134,4.0,4.0,39,0.00,,,0.00,Wunderground v.1.15,2013-06-19 21:25:00,
2013-06-19 17:31:00,73.0,45.2,30.08,ESE,120,3.0,4.0,37,0.00,,,0.00,Wunderground v.1.15,2013-06-19 21:31:00,
2013-06-19 17:41:00,73.1,46.0,30.08,SE,131,3.0,9.0,38,0.00,,,0.00,Wunderground v.1.15,2013-06-19 21:41:00,
2013-06-19 17:51:00,73.2,46.8,30.07,SE,127,3.0,5.0,39,0.00,,,0.00,Wunderground v.1.15,2013-06-19 21:51:00,
2013-06-19 18:01:00,73.3,44.0,30.08,SE,130,3.0,6.0,35,0.00,,,0.00,Wunderground v.1.15,2013-06-19 22:01:00,
2013-06-19 18:06:00,73.3,44.7,30.07,East,97,4.0,6.0,36,0.00,,,0.00,Wunderground v.1.15,2013-06-19 22:06:00,
2013-06-19 18:16:00,73.6,44.2,30.07,SE,138,1.0,4.0,35,0.00,,,0.00,Wunderground v.1.15,2013-06-19 22:16:00,
2013-06-19 18:26:00,73.7,45.1,30.07,ESE,107,1.0,2.0,36,0.00,,,0.00,Wunderground v.1.15,2013-06-19 22:26:00,
2013-06-19 18:31:00,73.5,45.6,30.07,SE,140,3.0,7.0,37,0.00,,,0.00,Wunderground v.1.15,2013-06-19 22:31:00,
2013-06-19 18:41:00,73.3,44.7,30.07,ESE,110,5.0,5.0,36,0.00,,,0.00,Wunderground v.1.15,2013-06-19 22:41:00,
2013-06-19 18:46:00,73.4,45.5,30.07,ESE,105,2.0,5.0,37,0.00,,,0.00,Wunderground v.1.15,2013-06-19 22:46:00,
2013-06-19 18:56:00,73.2,44.6,30.07,ESE,111,4.0,5.0,36,0.00,,,0.00,Wunderground v.1.15,2013-06-19 22:56:00,
2013-06-19 19:05:00,73.2,46.1,30.07,SSE,151,3.0,6.0,38,0.00,,,0.00,Wunderground v.1.15,2013-06-19 23:05:00,
2013-06-19 19:11:00,73.1,45.3,30.07,ESE,113,5.0,6.0,37,0.00,,,0.00,Wunderground v.1.15,2013-06-19 23:11:00,
2013-06-19 19:16:00,73.0,45.2,30.07,ESE,115,4.0,4.0,37,0.00,,,0.00,Wunderground v.1.15,2013-06-19 23:16:00,
2013-06-19 19:26:00,72.9,45.8,30.07,SE,136,4.0,5.0,38,0.00,,,0.00,Wunderground v.1.15,2013-06-19 23:26:00,
2013-06-19 19:31:00,72.8,45.7,30.07,ESE,120,4.0,5.0,38,0.00,,,0.00,Wunderground v.1.15,2013-06-19 23:31:00,
2013-06-19 19:41:00,73.3,46.2,30.07,SSE,147,1.0,2.0,38,0.00,,,0.00,Wunderground v.1.15,2013-06-19 23:41:00,
2013-06-19 19:50:00,73.2,46.1,30.07,SE,135,4.0,6.0,38,0.00,,,0.00,Wunderground v.1.15,2013-06-19 23:50:00,
2013-06-19 19:56:00,73.0,45.9,30.07,ESE,119,3.0,3.0,38,0.00,,,0.00,Wunderground v.1.15,2013-06-19 23:56:00,
2013-06-19 20:01:00,72.9,45.8,30.08,ESE,119,1.0,1.0,38,0.00,,,0.00,Wunderground v.1.15,2013-06-20 00:01:00,
2013-06-19 20:11:00,72.9,45.8,30.08,South,174,1.0,1.0,38,0.00,,,0.00,Wunderground v.1.15,2013-06-20 00:11:00,
2013-06-19 20:20:00,73.1,46.7,30.08,South,174,0.0,0.0,39,0.00,,,0.00,Wunderground v.1.15,2013-06-20 00:20:00,
2013-06-19 20:26:00,73.1,45.3,30.08,SE,127,1.0,1.0,37,0.00,,,0.00,Wunderground v.1.15,2013-06-20 00:26:00,
2013-06-19 20:40:00,72.2,45.2,30.08,ESE,119,2.0,2.0,38,0.00,,,0.00,Wunderground v.1.15,2013-06-20 00:40:00,
2013-06-19 20:45:00,72.1,45.8,30.08,ESE,119,1.0,2.0,39,0.00,,,0.00,Wunderground v.1.15,2013-06-20 00:45:00,
2013-06-19 20:56:00,72.3,45.9,30.08,ESE,119,0.0,0.0,39,0.00,,,0.00,Wunderground v.1.15,2013-06-20 00:56:00,
2013-06-19 21:01:00,72.5,47.5,30.08,ESE,119,0.0,0.0,41,0.00,,,0.00,Wunderground v.1.15,2013-06-20 01:01:00,
2013-06-19 21:10:00,72.2,47.8,30.08,ESE,119,0.0,0.0,42,0.00,,,0.00,Wunderground v.1.15,2013-06-20 01:10:00,
2013-06-19 21:16:00,71.9,48.2,30.08,ESE,119,0.0,0.0,43,0.00,,,0.00,Wunderground v.1.15,2013-06-20 01:16:00,
2013-06-19 21:25:00,71.1,48.7,30.08,ESE,119,0.0,0.0,45,0.00,,,0.00,Wunderground v.1.15,2013-06-20 01:25:00,
2013-06-19 21:31:00,70.4,48.0,30.08,ESE,119,0.0,0.0,45,0.00,,,0.00,Wunderground v.1.15,2013-06-20 01:31:00,
2013-06-19 21:41:00,69.1,48.6,30.08,ESE,119,0.0,0.0,48,0.00,,,0.00,Wunderground v.1.15,2013-06-20 01:41:00,
2013-06-19 21:50:00,68.1,48.2,30.09,ESE,119,0.0,0.0,49,0.00,,,0.00,Wunderground v.1.15,2013-06-20 01:50:00,
2013-06-19 22:01:00,67.2,49.5,30.09,ENE,77,1.0,3.0,53,0.00,,,0.00,Wunderground v.1.15,2013-06-20 02:01:00,
2013-06-19 22:16:00,65.6,51.3,30.10,ENE,71,3.0,3.0,60,0.00,,,0.00,Wunderground v.1.15,2013-06-20 02:16:00,
2013-06-19 22:26:00,64.8,51.5,30.10,East,98,2.0,3.0,62,0.00,,,0.00,Wunderground v.1.15,2013-06-20 02:26:00,
2013-06-19 22:31:00,64.6,51.7,30.10,East,84,3.0,5.0,63,0.00,,,0.00,Wunderground v.1.15,2013-06-20 02:31:00,
2013-06-19 22:40:00,64.2,51.3,30.10,East,86,4.0,4.0,63,0.00,,,0.00,Wunderground v.1.15,2013-06-20 02:40:00,
2013-06-19 22:51:00,63.9,51.5,30.10,ENE,74,3.0,3.0,64,0.00,,,0.00,Wunderground v.1.15,2013-06-20 02:51:00,
2013-06-19 22:56:00,63.8,51.8,30.11,ENE,67,2.0,3.0,65,0.00,,,0.00,Wunderground v.1.15,2013-06-20 02:56:00,
2013-06-19 23:05:00,63.6,51.6,30.11,East,86,3.0,5.0,65,0.00,,,0.00,Wunderground v.1.15,2013-06-20 03:05:00,
2013-06-19 23:16:00,63.3,51.7,30.10,East,89,2.0,4.0,66,0.00,,,0.00,Wunderground v.1.15,2013-06-20 03:16:00,
2013-06-19 23:41:00,62.4,51.7,30.10,East,99,2.0,2.0,68,0.00,,,0.00,Wunderground v.1.15,2013-06-20 03:41:00,
2013-06-19 23:50:00,62.3,51.6,30.10,ESE,111,3.0,3.0,68,0.00,,,0.00,Wunderground v.1.15,2013-06-20 03:50:00,
2013-06-19 23:56:00,62.3,52.0,30.10,East,94,3.0,3.0,69,0.00,,,0.00,Wunderground v.1.15,2013-06-20 03:56:00,